COSMOS 1275 DEB

Satellite information

Favourite Embed

Satellite Type and Status

DEBRISIN ORBIT

Key statistics

Satellite COSMOS 1275 DEB at a glance.

Uptime

16103

Days in orbit

Revolutions

≈ 14.1

Per day

Orbit

LEO

Low Earth Orbit

Inclination

83.1

Latest

Satellite identification and parameters

Extended collection of information and parameters for COSMOS 1275 DEB.

Object identification

Identified? True

Debris? True

Object name: COSMOS 1275 DEB

International designator: 1981-053ET

Object number (NORAD): 13021

Object ID (CCSDS): 13021

Country: COMMONWEALTH OF INDEPENDENT STATES (CIS)

Current information (Y/N): Y

RCS size: SMALL

Orbital parameters

Period: 102.488 minutes

Inclination: 83.144 deg

SMA: 7254.513 km

Apoapsis: 893.444 km

Periapsis: 859.311 km

RAAN: 191.7071 deg

Eccentricy: 0.0023526

Argument of periapsis: 133.1304 deg

Mean anomaly: 350.0993 deg

Mean motion: 14.05045572 rev/day

Mean motion (dot): 0.0000089 rev/day2

B* drag term: 0.00054076 1/REarth

Two-line elements (TLE)

Creation date: July 4, 2025, 6:39 p.m.

Reference frame: TEME

Reference center: EARTH

Epoch: July 4, 2025, 1:26 p.m. UTC

TLE line 0: 0 COSMOS 1275 DEB

TLE line 1: 1 13021U 81053ET 25185.56038815 .00000890 00000-0 54076-3 0 9993

TLE line 2: 2 13021 83.1440 191.7071 0023526 133.1304 350.0993 14.05045572210845

Live tracking on map

Real-time ground track for satellite COSMOS 1275 DEB.

In-orbit conjunctions

A list of the most updated potential collisions computed for object COSMOS 1275 DEB.

Target Orbit TCA Probability of collision Miss distance Type
RADCAL LEO 2025-04-27 03:29:33 0.0001291492 247.0 (m) PAYLOAD
COSMOS 2251 DEB LEO 2024-11-09 21:23:41 0.002123764 385.0 (m) DEBRIS

Associated space launch

Navigation satellite providing location information for the Tsiklon-B navigation system

COSMOS 1275 DEB was lifted into orbit during the mission ‘Kosmos-3M | Parus 27’, on board a Kosmos-3M space rocket.

The launch took place on June 4, 1981, 3:41 p.m. from 132/2.

For more information about the launch, click the button.

Launch to space Kosmos-3M | Parus 27
Kosmos-3M | Parus 27

Agency: N/A

Status: Launch Successful

Launch date: June 4, 1981, 3:41 p.m. UTC

Rocket: Kosmos-3M

Launch pad: 132/2

Location: Plesetsk Cosmodrome, Russian Federation

...

Latest news about this satellite

There are no fresh news available about this satellite. Check back as we update our databases every day.


Newsletter sign-up

Weekly statistics, charts and insights to help you stay on top of the space industry.